Satellite: NOAA-11
Catalog number: 19531
Epoch time:      06110.29864346
Element set:      87
Inclination:      098.8267 deg
RA of node:       199.3415 deg
Eccentricity:    0.0011984
Arg of perigee:   150.6601 deg
Mean anomaly:     209.5247 deg
Mean motion:   14.14795416 rev/day
Decay rate:        1.0e-07 rev/day^2
Epoch rev:           90635
Checksum:              306

Satellite: NOAA-12
Catalog number: 21263
Epoch time:      06110.26798642
Element set:     580
Inclination:      098.7289 deg
RA of node:       103.8026 deg
Eccentricity:    0.0011848
Arg of perigee:   256.3734 deg
Mean anomaly:     103.6105 deg
Mean motion:   14.25486702 rev/day
Decay rate:       -7.3e-07 rev/day^2
Epoch rev:           77599
Checksum:              311

Satellite: MET-3/5
Catalog number: 21655
Epoch time:      06109.79309222
Element set:    0092
Inclination:      082.5528 deg
RA of node:       302.0558 deg
Eccentricity:    0.0013037
Arg of perigee:   183.0280 deg
Mean anomaly:     177.0797 deg
Mean motion:   13.17006438 rev/day
Decay rate:        5.1e-07 rev/day^2
Epoch rev:           70567
Checksum:              290

Satellite: MET-2/21
Catalog number: 22782
Epoch time:      06110.25200779
Element set:     484
Inclination:      082.5516 deg
RA of node:       017.4123 deg
Eccentricity:    0.0022217
Arg of perigee:   346.8005 deg
Mean anomaly:     013.2576 deg
Mean motion:   13.83602942 rev/day
Decay rate:        1.7e-07 rev/day^2
Epoch rev:           63803
Checksum:              268

Satellite: OKEAN-4
Catalog number: 23317
Epoch time:      06109.76170169
Element set:    0922
Inclination:      082.5398 deg
RA of node:       331.5069 deg
Eccentricity:    0.0021293
Arg of perigee:   204.1940 deg
Mean anomaly:     155.8245 deg
Mean motion:   14.82340095 rev/day
Decay rate:       3.74e-06 rev/day^2
Epoch rev:           62132
Checksum:              289

Satellite: NOAA-14
Catalog number: 23455
Epoch time:      06110.33232558
Element set:      89
Inclination:      099.0412 deg
RA of node:       167.9720 deg
Eccentricity:    0.0009045
Arg of perigee:   209.5761 deg
Mean anomaly:     150.4872 deg
Mean motion:   14.13652239 rev/day
Decay rate:        7.0e-07 rev/day^2
Epoch rev:           58289
Checksum:              298

Satellite: SICH-1
Catalog number: 23657
Epoch time:      06109.78392347
Element set:    0725
Inclination:      082.5250 deg
RA of node:       112.3693 deg
Eccentricity:    0.0023432
Arg of perigee:   191.4568 deg
Mean anomaly:     168.6142 deg
Mean motion:   14.81337891 rev/day
Decay rate:       3.48e-06 rev/day^2
Epoch rev:           57334
Checksum:              312

Satellite: NOAA-15
Catalog number: 25338
Epoch time:      06110.21941797
Element set:     482
Inclination:      098.5175 deg
RA of node:       114.2552 deg
Eccentricity:    0.0010461
Arg of perigee:   178.1456 deg
Mean anomaly:     181.9760 deg
Mean motion:   14.24573100 rev/day
Decay rate:        4.9e-07 rev/day^2
Epoch rev:           41246
Checksum:              288

Satellite: RESURS
Catalog number: 25394
Epoch time:      06109.75801500
Element set:     347
Inclination:      098.4977 deg
RA of node:       174.6084 deg
Eccentricity:    0.0001755
Arg of perigee:   017.2622 deg
Mean anomaly:     342.8616 deg
Mean motion:   14.24097400 rev/day
Decay rate:       -3.1e-07 rev/day^2
Epoch rev:           40408
Checksum:              283

Satellite: FENGYUN1
Catalog number: 25730
Epoch time:      06110.57475536
Element set:     709
Inclination:      098.6246 deg
RA of node:       105.3070 deg
Eccentricity:    0.0013766
Arg of perigee:   308.3645 deg
Mean anomaly:     051.6274 deg
Mean motion:   14.11808429 rev/day
Decay rate:      -2.43e-06 rev/day^2
Epoch rev:           35788
Checksum:              300

Satellite: OKEAN-0
Catalog number: 25860
Epoch time:      06110.48470724
Element set:     725
Inclination:      097.7365 deg
RA of node:       127.5013 deg
Eccentricity:    0.0000933
Arg of perigee:   037.2514 deg
Mean anomaly:     322.8766 deg
Mean motion:   14.73354312 rev/day
Decay rate:       1.58e-06 rev/day^2
Epoch rev:           36325
Checksum:              282

Satellite: NOAA-16
Catalog number: 26536
Epoch time:      06109.34522608
Element set:     848
Inclination:      099.0614 deg
RA of node:       075.2874 deg
Eccentricity:    0.0009829
Arg of perigee:   288.6429 deg
Mean anomaly:     071.3675 deg
Mean motion:   14.12331643 rev/day
Decay rate:       -4.2e-07 rev/day^2
Epoch rev:           28727
Checksum:              325

Satellite: NOAA-17
Catalog number: 27453
Epoch time:      06110.33441608
Element set:     870
Inclination:      098.6219 deg
RA of node:       183.6632 deg
Eccentricity:    0.0011039
Arg of perigee:   240.6173 deg
Mean anomaly:     119.3914 deg
Mean motion:   14.23768657 rev/day
Decay rate:        3.1e-07 rev/day^2
Epoch rev:           19854
Checksum:              301

Satellite: NOAA-18
Catalog number: 28654
Epoch time:      06110.27104554
Element set:     450
Inclination:      098.7847 deg
RA of node:       054.7981 deg
Eccentricity:    0.0015015
Arg of perigee:   028.3851 deg
Mean anomaly:     331.8164 deg
Mean motion:   14.10948884 rev/day
Decay rate:       1.00e-06 rev/day^2
Epoch rev:            4721
Checksum:              293

/EX
SB KEPS @ AMSAT  $ORB06110.M
Orbital Elements  06110.MISC

HR AMSAT ORBITAL ELEMENTS FOR MANNED AND MISCELLANEOUS SATELLITES
FROM WA5QGD FORT WORTH,TX April 20, 2006
Send SUBSCRIBE KEPS/UNSUBSCRIBE KEPS to majordomo@amsat.org only
BID: ORB06110.M
TO ALL RADIO AMATEURS BT

